Regional Weather Roundup
Issued by NWS

Home | Current Version | Previous Version | Text Only | Print | Product List | Glossary Off
Versions: 1 2 3 4 5 6 7 8 9 10 11 12 13 14 15 16 17 18 19 20 21 22 23 24 25 26 27 28 29 30 31 32 33 34 35 36 37 38 39 40 41 42 43 44 45 46 47 48 49 50

000
ASUS43 KIND 270509
RWRIN

WEATHER ROUNDUP FOR INDIANA
NATIONAL WEATHER SERVICE INDIANAPOLIS IN
100 AM EDT FRI MAY 27 2016

NOTE: "FAIR" INDICATES FEW OR NO CLOUDS BELOW 12,000 FEET WITH NO
SIGNIFICANT WEATHER AND/OR OBSTRUCTIONS TO VISIBILITY.

* - STATION DOES NOT REPORT WEATHER SUCH AS PRECIPITATION OR FOG.

+ - STATION NOT QUALITY CONTROLLED BY THE NATIONAL WEATHER SERVICE.
    USE DATA WITH CAUTION...ESPECIALLY DEWPOINT AND RELATIVE
    HUMIDITY OBSERVATIONS.

INZ001>003-010>013-019-020-270600-
NORTHWEST INDIANA

CITY           SKY/WX    TMP DP  RH WIND       PRES   REMARKS
GARY /AIRPORT/ MOCLDY    74  72  93 S8G16     29.91F
KNOX *+        PTCLDY    68  59  73 SW10      29.94S
LA PORTE +     PTCLDY    72  67  84 SW8       29.94F
MICHIGAN CITY+ CLOUDY    70  64  83 S9        29.92F
MONTICELLO +   MOCLDY    67  61  81 S6        29.95F
RENSSELAER +   CLOUDY    68  64  88 S13       29.94F
VALPARAISO     CLOUDY    71  64  78 SW9       29.93F

$$

LMZ046-743>745-270600-
SOUTHERN LAKE MICHIGAN

STATION/POSITION TIME  TEMP    WIND        PRES    WAVE
                       AIR SEA DIR/SP/G            HT
                 (UTC) (F)     (DEG/KT/KT) (MB)    (FT)
BURNS HARBOR     0400   73     190/ 14/ 23 1013.5R
MICHIGAN CITY    0400   74     170/ 12/ 14   N/A
5NW MICH CITY    0500   67 59  200/ 10/ 12   N/A     1

$$

INZ004-005-014>016-021>024-270600-
NORTH CENTRAL INDIANA

CITY           SKY/WX    TMP DP  RH WIND       PRES   REMARKS
GOSHEN         CLEAR     69  60  73 S8        29.95R
LOGANSPORT +   PTCLDY    64  61  88 S5        29.96F
PERU/GRISSOM   PTCLDY    66  64  94 SW6       29.95F
ROCHESTER +    PTCLDY    70  64  83 SW7       29.96F
SOUTH BEND     PTCLDY    70  64  81 SW9       29.93F
WARSAW +       CLOUDY    68  63  83 SW3       29.96F

$$

INZ006>009-017-018-025>027-270600-
NORTHEAST INDIANA

CITY           SKY/WX    TMP DP  RH WIND       PRES   REMARKS
ANGOLA *+        N/A     68  61  77 SW6       29.96S
AUBURN +       CLOUDY    70  61  73 SW7       29.97S
FORT WAYNE     CLOUDY    67  61  81 SW8       29.98R
HUNTINGTON +   CLOUDY   N/A N/A N/A CALM      29.97F

$$

INZ028-029-035-036-043>045-051>053-270600-
WEST CENTRAL INDIANA

CITY           SKY/WX    TMP DP  RH WIND       PRES   REMARKS
CRAWFORDSVL +  PTCLDY    64  64 100 S7        29.97F
GREENCASTLE +  CLOUDY    61  61 100 S5        29.99F
LAFAYETTE      MOCLDY    66  62  87 CALM      29.95F
TERRE HAUTE    CLOUDY    65  62  90 S6        29.97F

$$

INZ030>032-037>040-046>048-054>057-064-065-270600-
CENTRAL INDIANA

CITY           SKY/WX    TMP DP  RH WIND       PRES   REMARKS
CP ATTERBURY + CLOUDY    63  61  94 SE5       30.01R
FISHERS *+     CLOUDY    64  64 100 SW5       29.99S
FRANKFORT +      N/A     65  65 100 CALM      29.99F
GREENWOOD *+   CLOUDY    64  63  94 S6        30.01
INDIANAPOLIS   NOT AVBL
-EAGLE CREEK   CLOUDY    67  61  81 SW6       29.99R
KOKOMO *+      MOCLDY    66  59  77 S7        29.97F
MARION +       CLOUDY    64  61  87 S5        29.99S
SHELBYVILLE    CLOUDY    66  62  87 S6        30.00R
ZIONSVILLE +   MOCLDY    65  62  90 S7        30.00R

$$

INZ033-034-041-042-049-050-058-059-270600-
EAST CENTRAL INDIANA

CITY           SKY/WX    TMP DP  RH WIND       PRES   REMARKS
MUNCIE         CLOUDY    69  62  78 SW5       29.99S

$$

INZ060-061-067>069-081>083-085>088-270600-
SOUTHWEST INDIANA

CITY           SKY/WX    TMP DP  RH WIND       PRES   REMARKS
EVANSVILLE     MOCLDY    66  62  87 E5        29.99R
HUNTINGBURG *+ CLOUDY    66  63  88 SE7       29.99S
WASHINGTON +   MOCLDY    65  65 100 CALM      29.97F

$$

INZ062-063-066-070>080-084-089>092-270600-
SOUTH CENTRAL AND SOUTHEAST INDIANA

CITY           SKY/WX    TMP DP  RH WIND       PRES   REMARKS
BEDFORD +      CLOUDY    64  64 100 SE3       29.99S
BLOOMINGTON    CLOUDY    67  61  81 SW5       29.99F
MADISON *+     CLOUDY    64  63  94 CALM      30.04R
NORTH VERNON + CLOUDY   N/A N/A N/A CALM      30.03R
SEYMOUR +      MOCLDY    66  64  94 CALM      30.01R

$$




USA.gov is the U.S. government's official web portal to all federal, state and local government web resources and services.